GW2510 Weather Reports


time (UTC)temp
F
wind
direction
speed
knots
gust
knots
rain 1hr
in
rain 24hr
in
rain mn
in
humidity
%
barometer
mb
20260503230456 61 174 3.5 3.5 0.00 0.00 0.00 56 1010.3
20260503225954 61 209 1.7 7.0 0.00 0.00 0.00 57 1010.2
20260503225451 60 156 3.5 7.8 0.00 0.00 0.00 57 1010.3
20260503224946 60 204 3.5 6.1 0.00 0.00 0.00 56 1010.4
20260503224443 60 216 5.2 6.1 0.00 0.00 0.00 55 1010.6
20260503223941 60 284 4.3 7.0 0.00 0.00 0.00 56 1010.7
20260503223439 60 204 4.3 7.8 0.00 0.00 0.00 55 1010.9
20260503222934 60 228 3.5 12.2 0.00 0.00 0.00 53 1010.7
20260503222433 60 213 3.5 7.8 0.00 0.00 0.00 53 1010.5
20260503221931 60 183 5.2 6.1 0.00 0.00 0.00 54 1010.4
20260503221429 60 183 5.2 7.8 0.00 0.00 0.00 52 1010.7
20260503220925 60 198 7.8 11.3 0.00 0.00 0.00 53 1010.7
20260503220421 60 197 7.0 8.7 0.00 0.00 0.00 52 1010.7
20260503215919 60 223 5.2 9.6 0.00 0.00 0.00 52 1010.8
20260503215416 60 133 9.6 12.2 0.00 0.00 0.00 51 1010.8
20260503214913 61 182 6.1 9.6 0.00 0.00 0.00 52 1010.6
20260503214411 60 200 4.3 12.2 0.00 0.00 0.00 52 1010.5
20260503213908 60 221 5.2 8.7 0.00 0.00 0.00 52 1010.7
20260503213406 60 190 7.8 13.0 0.00 0.00 0.00 52 1010.5
20260503212902 60 166 10.4 13.9 0.00 0.00 0.00 52 1010.8
20260503212400 61 166 4.3 11.3 0.00 0.00 0.00 53 1010.6
20260503211857 62 199 9.6 13.9 0.00 0.00 0.00 50 1011.0
20260503211354 62 240 10.4 12.2 0.00 0.00 0.00 50 1011.4
20260503210848 61 211 7.8 13.9 0.00 0.00 0.00 51 1011.4
20260503210346 61 182 5.2 14.8 0.00 0.00 0.00 51 1011.3
20260503205841 61 259 8.7 19.1 0.00 0.00 0.00 51 1011.4
20260503205338 61 250 11.3 13.9 0.00 0.00 0.00 50 1011.7
20260503204834 61 201 5.2 9.6 0.00 0.00 0.00 51 1012.1
20260503204332 62 207 1.7 3.5 0.00 0.00 0.00 51 1012.0
20260503203829 62 178 8.7 14.8 0.00 0.00 0.00 49 1012.1
20260503203326 62 184 7.8 11.3 0.00 0.00 0.00 49 1011.7
20260503202823 62 190 7.8 11.3 0.00 0.00 0.00 48 1012.0
20260503202321 62 190 9.6 11.3 0.00 0.00 0.00 48 1012.1
20260503201819 62 223 10.4 15.6 0.00 0.00 0.00 49 1012.4
20260503201316 62 157 6.1 22.6 0.00 0.00 0.00 50 1012.6
20260503200814 63 228 9.6 13.9 0.00 0.00 0.00 48 1013.1
20260503200309 62 218 6.1 12.2 0.00 0.00 0.00 50 1012.5
20260503195807 61 193 9.6 12.2 0.00 0.00 0.00 48 1013.1
20260503195304 61 189 5.2 9.6 0.00 0.00 0.00 49 1013.4
20260503194800 60 223 6.1 8.7 0.00 0.00 0.00 49 1013.8
20260503194256 60 246 7.8 9.6 0.00 0.00 0.00 49 1014.2
20260503193753 60 221 6.1 13.9 0.00 0.00 0.00 49 1014.4
20260503193249 60 222 3.5 12.2 0.00 0.00 0.00 50 1014.3
20260503192745 61 263 9.6 13.9 0.00 0.00 0.00 48 1014.6
20260503192240 61 248 6.1 14.8 0.00 0.00 0.00 48 1014.5
20260503191737 61 214 7.8 15.6 0.00 0.00 0.00 48 1014.6
20260503191234 60 214 9.6 13.0 0.00 0.00 0.00 48 1014.5
20260503190731 60 198 11.3 14.8 0.00 0.00 0.00 47 1014.4
20260503190227 60 211 13.9 16.5 0.00 0.00 0.00 47 1014.6
20260503185725 60 249 7.8 18.2 0.00 0.00 0.00 48 1014.7
20260503185220 60 253 7.8 12.2 0.00 0.00 0.00 47 1014.7
20260503184715 61 239 7.8 13.9 0.00 0.00 0.00 48 1014.6
20260503184211 61 200 13.0 16.5 0.00 0.00 0.00 46 1014.5
20260503183708 62 228 9.6 13.9 0.00 0.00 0.00 48 1014.5
20260503183205 62 279 6.1 12.2 0.00 0.00 0.00 47 1014.5
20260503182704 61 224 3.5 8.7 0.00 0.00 0.00 50 1014.5
20260503182202 60 237 8.7 12.2 0.00 0.00 0.00 49 1014.9
20260503181658 62 221 8.7 16.5 0.00 0.00 0.00 49 1014.8
20260503181155 62 239 10.4 15.6 0.00 0.00 0.00 49 1015.1
20260503180651 62 237 7.8 11.3 0.00 0.00 0.00 47 1014.8
20260503180150 62 215 5.2 13.0 0.00 0.00 0.00 52 1015.2
20260503175647 61 170 5.2 9.6 0.00 0.00 0.00 51 1015.3
20260503175144 61 185 7.8 11.3 0.00 0.00 0.00 48 1015.6
20260503174640 61 189 7.0 13.9 0.00 0.00 0.00 48 1015.5
20260503174137 60 169 7.8 13.0 0.00 0.00 0.00 50 1015.8
20260503173632 60 239 10.4 13.0 0.00 0.00 0.00 50 1016.0
20260503173129 60 252 6.1 11.3 0.00 0.00 0.00 53 1016.0
20260503172626 60 202 9.6 14.8 0.00 0.00 0.00 52 1016.3
20260503172124 61 213 12.2 13.9 0.00 0.00 0.00 50 1016.1
20260503171620 60 204 7.8 13.0 0.00 0.00 0.00 50 1016.3
20260503171117 61 251 9.6 13.9 0.00 0.00 0.00 52 1016.5
20260503170614 60 241 4.3 12.2 0.00 0.00 0.00 52 1016.3
20260503170111 59 221 6.1 8.7 0.00 0.00 0.00 52 1016.6
20260503151006 56 254 5.2 7.8 0.00 0.00 0.00 58 1018.1
20260503150502 55 197 4.3 8.7 0.00 0.00 0.00 59 1018.2
20260503131355 48 212 3.5 6.1 0.00 0.00 0.00 71 1018.6
20260503130853 48 177 5.2 6.1 0.00 0.00 0.00 70 1018.4
20260503130350 47 197 5.2 7.0 0.00 0.00 0.00 71 1018.6
20260503110744 39 228 0.0 2.6 0.00 0.00 0.00 82 1018.1
20260503110241 38 259 0.9 1.7 0.00 0.00 0.00 83 1018.1
20260503100207 38 259 0.0 0.0 0.00 0.00 0.00 84 1018.0
20260503090131 38 239 0.9 0.9 0.00 0.00 0.00 82 1018.2
20260503081602 38 275 0.0 0.0 0.00 0.00 0.00 83 1018.1
20260503081059 38 206 0.0 0.0 0.00 0.00 0.00 83 1018.1
20260503080554 38 229 0.0 0.0 0.00 0.00 0.00 83 1018.2
20260503072528 37 255 0.0 0.0 0.00 0.00 0.00 87 1018.2
20260503072026 37 226 0.0 0.0 0.00 0.00 0.00 86 1018.2
20260503071522 37 274 0.0 0.0 0.00 0.00 0.00 87 1018.2
20260503071019 37 260 0.0 0.0 0.00 0.00 0.00 85 1018.3
20260503070516 37 248 0.0 0.0 0.00 0.00 0.00 88 1018.4
20260503054939 36 57 0.0 0.0 0.00 0.00 0.00 96 1018.7
20260503054436 36 57 0.0 0.0 0.00 0.00 0.00 96 1018.6
20260503053933 36 57 0.0 0.0 0.00 0.00 0.00 96 1018.7
20260503053431 36 57 0.0 0.0 0.00 0.00 0.00 95 1018.7
20260503052927 36 57 0.0 0.0 0.00 0.00 0.00 95 1018.7
20260503052425 36 57 0.0 0.0 0.00 0.00 0.00 95 1018.6
20260503051921 36 57 0.0 0.0 0.00 0.00 0.00 95 1018.7
20260503051417 36 57 0.0 0.0 0.00 0.00 0.00 95 1018.6
20260503050914 36 57 0.0 0.0 0.00 0.00 0.00 95 1018.6
20260503050410 37 57 0.0 0.0 0.00 0.00 0.00 94 1018.8
20260503045908 37 57 0.0 0.0 0.00 0.00 0.00 95 1018.7
20260503045405 37 57 0.0 0.0 0.00 0.00 0.00 94 1018.8
20260503044902 37 54 0.0 0.0 0.00 0.00 0.00 93 1018.7
20260503044359 37 18 0.0 0.0 0.00 0.00 0.00 93 1018.7
20260503043856 37 18 0.0 0.0 0.00 0.00 0.00 93 1018.8
20260503043353 37 18 0.0 0.0 0.00 0.00 0.00 92 1018.9
20260503042849 37 15 0.0 0.0 0.00 0.00 0.00 91 1018.8
20260503042346 37 15 0.0 0.0 0.00 0.00 0.00 91 1018.7
20260503041842 37 4 0.0 0.0 0.00 0.00 0.00 90 1018.8
20260503041339 37 325 0.0 0.0 0.00 0.00 0.00 91 1018.8
20260503040837 37 325 0.0 0.0 0.00 0.00 0.00 89 1018.7
20260503040334 37 325 0.0 0.0 0.00 0.00 0.00 89 1018.8
20260503035831 38 325 0.0 0.0 0.00 0.00 0.00 89 1019.0
20260503035328 38 325 0.0 0.0 0.00 0.00 0.00 90 1018.9
20260503034825 38 321 0.0 0.0 0.00 0.00 0.00 89 1018.9
20260503034323 38 321 0.0 0.0 0.00 0.00 0.00 89 1019.0
20260503033820 38 321 0.0 0.0 0.00 0.00 0.00 90 1018.8
20260503033317 38 321 0.0 0.0 0.00 0.00 0.00 90 1018.9
20260503032815 39 321 0.0 0.0 0.00 0.00 0.00 89 1018.7
20260503032314 39 321 0.0 0.0 0.00 0.00 0.00 89 1018.7
20260503031811 39 321 0.0 0.0 0.00 0.00 0.00 87 1018.9
20260503031309 39 321 0.0 0.0 0.00 0.00 0.00 87 1018.7
20260503030804 39 321 0.0 0.0 0.00 0.00 0.00 87 1018.8
20260503030301 39 321 0.0 0.0 0.00 0.00 0.00 87 1018.7
20260503025758 39 321 0.0 0.0 0.00 0.00 0.00 86 1019.0
20260503025255 40 321 0.0 0.0 0.00 0.00 0.00 89 1018.9
20260503024752 40 321 0.0 0.0 0.00 0.00 0.00 88 1018.8
20260503024249 40 321 0.0 0.0 0.00 0.00 0.00 87 1018.9
20260503023746 40 321 0.0 0.0 0.00 0.00 0.00 87 1018.8
20260503023243 40 321 0.0 0.0 0.00 0.00 0.00 87 1018.8
20260503022739 40 321 0.0 0.0 0.00 0.00 0.00 84 1018.7
20260503022239 41 321 0.0 0.0 0.00 0.00 0.00 84 1018.8
20260503021736 41 321 0.0 0.0 0.00 0.00 0.00 82 1018.6
20260503021232 41 321 0.0 0.0 0.00 0.00 0.00 81 1018.5
20260503020730 42 321 0.0 0.0 0.00 0.00 0.00 81 1018.7
20260503020228 42 321 0.0 0.0 0.00 0.00 0.00 79 1018.8
20260503015724 42 321 0.0 0.0 0.00 0.00 0.00 76 1018.8
20260503015221 42 321 0.0 0.0 0.00 0.00 0.00 76 1018.5
20260503014717 43 321 0.0 0.0 0.00 0.00 0.00 74 1018.5
20260503014215 43 321 0.0 0.0 0.00 0.00 0.00 73 1018.5
20260503013712 43 321 0.0 0.0 0.00 0.00 0.00 72 1018.3
20260503013210 43 321 0.0 0.0 0.00 0.00 0.00 71 1018.2
20260503012707 44 321 0.0 0.0 0.00 0.00 0.00 72 1018.3
20260503012204 44 321 0.0 0.0 0.00 0.00 0.00 71 1018.3
20260503011700 45 321 0.0 0.0 0.00 0.00 0.00 70 1018.3
20260503011157 45 321 0.0 0.0 0.00 0.00 0.00 66 1018.4
20260503010653 45 332 0.0 0.0 0.00 0.00 0.00 68 1018.1
20260503010151 46 332 0.0 0.0 0.00 0.00 0.00 67 1018.2
20260503005648 47 333 0.0 0.0 0.00 0.00 0.00 68 1018.2
20260503005145 47 333 0.0 0.0 0.00 0.00 0.00 62 1018.2
20260503004641 48 333 0.0 0.0 0.00 0.00 0.00 58 1018.2
20260503004140 48 332 0.0 0.0 0.00 0.00 0.00 54 1018.3
20260503003636 0 0.0 0.0 0.00 0.00 0.00 1018.1
20260503003133 0 0.0 0.0 0.00 0.00 0.00 1018.1
20260503002630 52 338 0.0 0.0 0.00 0.00 0.00 46 1018.0
20260503002127 52 338 0.0 0.0 0.00 0.00 0.00 46 1017.9
20260503001623 53 5 0.0 0.0 0.00 0.00 0.00 45 1018.1
20260503001120 53 350 1.7 1.7 0.00 0.00 0.00 44 1018.2
20260503000618 53 22 0.0 0.0 0.00 0.00 0.00 46 1018.0
20260503000115 53 342 0.9 1.7 0.00 0.00 0.00 44 1018.2
20260502235611 53 21 0.0 0.0 0.00 0.00 0.00 44 1017.9
20260502235110 53 359 0.0 0.0 0.00 0.00 0.00 45 1018.2
20260502234605 52 1 0.9 1.7 0.00 0.00 0.00 43 1018.0
20260502234103 52 352 1.7 3.5 0.00 0.00 0.00 44 1018.0
20260502233603 53 346 3.5 5.2 0.00 0.00 0.00 43 1017.9
20260502233101 53 342 0.9 2.6 0.00 0.00 0.00 45 1018.2
20260502232556 52 28 0.0 0.0 0.00 0.00 0.00 47 1018.1
20260502232054 53 39 0.9 3.5 0.00 0.00 0.00 44 1017.9
20260502231551 53 21 0.9 1.7 0.00 0.00 0.00 42 1018.2
20260502231049 53 348 1.7 3.5 0.00 0.00 0.00 42 1018.1